sat.trackr.live / text

‹ back to catalog

STARLINK-36361

NORAD 67900 · 2026-035X

PAYLOAD ACTIVE UNKNOWN

§ Identity

Operator
Country
US
Launch date
2026-02-21
Launch site
AFWTR
Launch vehicle
Mass (kg)
RCS (m²)

Purposes: comms

External: N2YO · Heavens-Above · Gunter

§ Orbital elements

Epoch: 2026-05-25T02:34:57.736416Z

Period
93.91 min
Inclination
97.2860°
Eccentricity
0.0001035
Mean motion
15.33461441 rev/d
Perigee alt
464.8 km
Apogee alt
466.2 km
Semi-major
6,843.6 km
B*
7.8184e-4
RAAN
78.7003°
Arg perigee
61.5745°
Mean anomaly
298.5602°
Rev number
1,570

§ Raw data

STARLINK-363611 67900U 26035X   26145.10761269  .00025263  00000+0  78184-3 0  99962 67900  97.2860  78.7003 0001035  61.5745 298.5602 15.33461441 15705

JSON: /api/v1/satellites/67900 · /tle

For live sub-satellite position, see the globe view (requires WebGL).

§ Visibility from observer

Set your observer location to see the next 7 days of passes ≥ 10°. The values pass through the URL so the page stays shareable.

No JS? Fill the form by hand. The geolocation button needs JavaScript.